Stations météo

réclame
Mon MeteoGroup
Cap Ferret, France (7500): Température de l'air & dewpoint: 12.06.2018 13:00:00 - 18.06.2018 13:00:00 (CEST)Cap Ferret, France (7500): Vitesse du vent & gusts: 12.06.2018 13:00:00 - 18.06.2018 13:00:00 (CEST)Cap Ferret, France (7500): Direction du vent: 12.06.2018 13:00:00 - 18.06.2018 13:00:00 (CEST)Cap Ferret, France (7500): reduced air pressure: 12.06.2018 13:00:00 - 18.06.2018 13:00:00 (CEST)Cap Ferret, France (7500): visibility: 12.06.2018 13:00:00 - 18.06.2018 13:00:00 (CEST)Cap Ferret, France (7500): Quantités de précipitations: 12.06.2018 13:00:00 - 18.06.2018 13:00:00 (CEST)
Date & Time tt [°C] td [°C] ff [km/h] ff [knt] fx [km/h] fx [knt] dd ppp [hPa] vv [km] rr [mm]
18.06.2018 13:00:00 22,5 16,8 9 5 17 9 WSW 1026,4 - 0,0
18.06.2018 12:00:00 21,0 17,0 6 3 19 10 WNW 1026,3 - 0,0
18.06.2018 11:00:00 18,9 17,0 10 6 29 16 NNW 1026,3 - 0,0
18.06.2018 10:00:00 19,4 18,2 16 8 32 18 WSW 1026,2 - 0,0
18.06.2018 09:00:00 18,3 16,3 21 11 35 19 WSW 1026,0 - 0,0
18.06.2018 08:00:00 18,6 15,3 20 11 29 16 WSW 1025,6 10 0,0
18.06.2018 07:00:00 18,3 14,8 19 10 29 16 WSW 1025,6 - 0,0
18.06.2018 06:00:00 18,1 14,4 18 10 26 14 WSW 1025,4 - 0,0
18.06.2018 05:00:00 17,8 13,9 14 8 26 14 WSW 1025,4 15 0,0
18.06.2018 04:00:00 17,5 13,4 9 5 33 18 W 1025,5 - 0,0
18.06.2018 03:00:00 17,8 12,7 21 12 34 18 W 1025,7 - 0,0
18.06.2018 02:00:00 17,9 12,8 18 10 23 12 W 1026,0 15 0,0
18.06.2018 01:00:00 17,4 12,5 19 11 25 14 W 1026,3 - 0,0
18.06.2018 00:00:00 17,4 12,3 17 9 22 12 W 1026,3 - 0,0
17.06.2018 23:00:00 17,3 11,8 12 6 19 10 W 1026,2 15 0,0
17.06.2018 22:00:00 18,3 11,4 14 7 23 13 WNW 1025,6 - 0,0
17.06.2018 21:00:00 19,1 11,6 16 9 27 14 WNW 1025,6 - 0,0
17.06.2018 20:00:00 19,9 11,6 15 8 25 13 WNW 1025,6 15 0,0
17.06.2018 19:00:00 21,3 11,0 14 7 26 14 WNW 1025,1 - 0,0
17.06.2018 18:00:00 22,0 11,4 19 11 30 16 WNW 1025,3 - 0,0
17.06.2018 17:00:00 22,7 12,3 19 10 29 16 WNW 1025,2 15 0,0
17.06.2018 16:00:00 23,1 13,0 18 10 30 16 WNW 1025,2 - 0,0
17.06.2018 15:00:00 22,8 13,3 21 12 31 17 W 1025,0 - 0,0
17.06.2018 14:00:00 22,9 13,7 20 11 32 17 WNW 1024,8 15 0,0
17.06.2018 13:00:00 22,3 14,4 19 10 30 16 WNW 1024,6 - 0,0
17.06.2018 12:00:00 20,5 14,2 13 7 30 16 WNW 1024,4 15 0,0
17.06.2018 11:00:00 20,1 14,5 18 10 27 15 WSW 1024,4 - 0,0
17.06.2018 10:00:00 19,6 14,8 11 6 21 11 S 1024,2 - 0,0
17.06.2018 09:00:00 18,8 14,3 11 6 19 10 S 1023,8 - 0,0
17.06.2018 08:00:00 17,8 14,1 7 4 14 7 S 1023,3 15 0,0
17.06.2018 07:00:00 16,8 13,3 3 2 15 8 W 1023,2 - 0,0
17.06.2018 06:00:00 16,6 12,9 10 5 33 18 WSW 1022,9 - 0,0
17.06.2018 05:00:00 17,5 12,8 23 12 36 20 W 1022,4 15 0,0
17.06.2018 04:00:00 17,3 11,8 16 9 24 13 W 1022,6 - 0,0
17.06.2018 03:00:00 16,6 11,5 15 8 22 12 W 1022,5 - 0,0
17.06.2018 02:00:00 17,0 11,9 16 9 21 11 W 1022,5 15 0,0
17.06.2018 01:00:00 16,8 11,5 14 7 20 11 WNW 1022,7 - 0,0
17.06.2018 00:00:00 17,3 11,6 13 7 19 10 WNW 1022,8 - 0,2
16.06.2018 23:00:00 17,1 10,5 11 6 23 12 WNW 1022,5 15 0,0
16.06.2018 22:00:00 17,9 10,8 14 8 24 13 NW 1022,1 - 0,0
16.06.2018 21:00:00 19,0 11,1 13 7 24 13 NW 1021,7 - 0,0
16.06.2018 20:00:00 19,5 10,8 14 8 24 13 WNW 1021,5 15 0,0
16.06.2018 19:00:00 21,7 11,1 16 9 25 14 WNW 1021,2 - 0,0
16.06.2018 18:00:00 22,4 11,2 15 8 25 13 W 1021,0 - 0,0
16.06.2018 17:00:00 23,0 11,1 16 9 25 14 W 1021,0 15 0,0
16.06.2018 16:00:00 22,3 11,4 19 11 27 15 WNW 1020,9 - 0,0
16.06.2018 15:00:00 22,5 11,6 17 9 25 13 W 1020,9 - 0,0
16.06.2018 14:00:00 20,6 11,5 16 9 26 14 W 1020,9 15 0,0
16.06.2018 13:00:00 21,2 11,8 13 7 23 12 W 1020,9 - 0,0
16.06.2018 12:00:00 21,2 10,7 13 7 20 11 WNW 1020,8 15 0,0
16.06.2018 11:00:00 20,2 9,7 11 6 25 13 WNW 1020,5 - 0,0
16.06.2018 10:00:00 19,2 11,0 15 8 26 14 W 1020,1 - 0,0
16.06.2018 09:00:00 17,9 10,5 22 12 35 19 W 1019,6 - 0,0
16.06.2018 08:00:00 17,3 10,4 16 8 23 12 W 1019,1 15 0,0
16.06.2018 07:00:00 16,5 10,3 14 8 23 12 WNW 1019,0 - 0,0
16.06.2018 06:00:00 16,3 9,7 14 8 24 13 WNW 1018,9 - 0,0
16.06.2018 05:00:00 16,6 10,0 18 10 28 15 WNW 1019,0 10 0,0
16.06.2018 04:00:00 16,3 9,7 18 10 32 17 WNW 1019,1 - 0,0
16.06.2018 03:00:00 16,7 10,8 16 9 27 15 WNW 1019,5 - 0,0
16.06.2018 02:00:00 16,3 11,2 20 11 27 14 WNW 1019,7 10 0,0
16.06.2018 01:00:00 16,8 11,7 13 7 20 11 NW 1019,6 - 0,0
16.06.2018 00:00:00 15,9 11,9 12 6 17 9 NNW 1019,8 - 0,0
15.06.2018 23:00:00 16,9 11,8 11 6 21 11 NNW 1019,9 - 0,0
15.06.2018 22:00:00 17,4 11,9 12 6 24 13 NNW 1019,8 - 0,0
15.06.2018 21:00:00 18,9 13,1 16 9 27 15 NNW 1019,6 - 0,0
15.06.2018 20:00:00 19,7 14,1 16 9 25 14 NW 1019,2 10 0,0
15.06.2018 19:00:00 21,7 14,1 16 9 26 14 NW 1019,2 - 0,0
15.06.2018 18:00:00 20,9 14,8 16 8 26 14 NW 1019,5 - 0,0
15.06.2018 17:00:00 20,6 15,6 15 8 27 14 NNW 1019,4 10 0,0
15.06.2018 16:00:00 19,0 17,3 16 9 29 16 NNW 1019,6 - 0,0
15.06.2018 15:00:00 18,8 16,4 16 9 26 14 SSW 1019,3 - 0,0
15.06.2018 14:00:00 19,6 15,7 16 9 26 14 SSW 1019,2 15 0,0
15.06.2018 13:00:00 19,4 15,7 15 8 27 14 SW 1019,2 - 0,0
15.06.2018 12:00:00 18,9 15,0 16 9 27 15 SW 1019,3 - 0,0
15.06.2018 11:00:00 18,1 14,8 16 9 27 15 SW 1019,1 6 0,0
15.06.2018 10:00:00 17,0 14,5 21 12 30 16 SW 1018,9 - 0,0
15.06.2018 09:00:00 16,6 14,8 17 9 24 13 WSW 1018,9 - 0,2
15.06.2018 08:00:00 16,9 14,9 12 7 20 11 WSW 1018,9 6 0,0
15.06.2018 07:00:00 17,5 13,4 12 7 20 11 W 1018,7 - 0,0
15.06.2018 06:00:00 17,5 12,6 13 7 19 10 W 1018,4 - 0,0
15.06.2018 05:00:00 17,3 12,6 13 7 19 10 W 1018,5 10 0,0
15.06.2018 04:00:00 16,9 12,8 14 8 18 10 W 1018,8 - 0,0
15.06.2018 03:00:00 16,9 12,8 13 7 19 10 W 1019,2 - 0,0
15.06.2018 02:00:00 17,7 13,2 11 6 17 9 WNW 1019,5 15 0,0
15.06.2018 01:00:00 17,7 13,4 9 5 16 9 NW 1019,9 - 0,0
15.06.2018 00:00:00 18,2 13,3 9 5 19 10 WNW 1019,8 - 0,0
14.06.2018 23:00:00 18,4 12,8 11 6 20 11 WNW 1020,0 15 0,0
14.06.2018 22:00:00 18,7 12,9 15 8 24 13 WNW 1019,8 - 0,0
14.06.2018 21:00:00 19,1 12,8 16 8 24 13 WNW 1019,9 - 0,0
14.06.2018 20:00:00 19,7 12,7 16 9 25 14 WNW 1020,1 15 0,0
14.06.2018 19:00:00 21,3 13,0 19 10 28 15 WNW 1020,1 - 0,0
14.06.2018 18:00:00 21,6 13,0 18 10 27 14 WNW 1020,1 - 0,0
14.06.2018 17:00:00 22,2 13,0 18 10 28 15 WNW 1020,0 15 0,0
14.06.2018 16:00:00 23,1 13,0 19 10 27 15 WNW 1020,5 - 0,0
14.06.2018 15:00:00 22,8 12,7 16 9 28 15 WNW 1020,6 - 0,0
14.06.2018 14:00:00 23,0 12,6 20 11 30 16 WNW 1020,6 15 0,0
14.06.2018 13:00:00 22,2 13,0 17 9 30 16 NW 1020,6 - 0,0
14.06.2018 12:00:00 20,6 13,5 19 10 32 17 WNW 1020,5 - 0,0
14.06.2018 11:00:00 19,7 13,4 20 11 33 18 WNW 1020,2 - 0,0
14.06.2018 10:00:00 20,2 14,1 24 13 34 19 WNW 1019,9 - 0,2
14.06.2018 09:00:00 18,7 14,2 23 12 29 16 W 1019,8 - 0,0
14.06.2018 08:00:00 18,5 13,8 16 8 24 13 WNW 1019,5 15 0,0
14.06.2018 07:00:00 17,3 13,2 18 10 26 14 WNW 1019,4 - 0,0
14.06.2018 06:00:00 17,5 13,6 15 8 24 13 NW 1019,3 - 0,0
14.06.2018 05:00:00 17,3 13,0 18 10 28 15 WNW 1019,4 10 0,0
14.06.2018 04:00:00 17,4 13,3 18 10 30 16 NW 1019,8 - 0,2
14.06.2018 03:00:00 17,6 13,5 22 12 33 18 WNW 1020,1 - 0,0
14.06.2018 02:00:00 17,9 14,0 21 11 32 18 WNW 1020,5 12 0,0
14.06.2018 01:00:00 18,1 14,4 23 12 33 18 NW 1020,7 - 0,0
14.06.2018 00:00:00 18,3 14,0 21 11 33 18 NW 1020,7 - 0,0
13.06.2018 23:00:00 18,4 14,3 19 10 32 18 NNW 1020,6 12 0,0
13.06.2018 22:00:00 18,5 14,4 22 12 46 25 NW 1020,0 - 0,0
13.06.2018 21:00:00 18,9 14,4 26 14 46 25 NW 1019,8 - 0,0
13.06.2018 20:00:00 19,7 13,8 22 12 41 22 NNW 1019,7 12 0,0
13.06.2018 19:00:00 21,0 14,4 26 14 42 23 NW 1019,5 - 0,0
13.06.2018 18:00:00 21,7 15,1 25 13 41 22 NW 1019,7 - 0,0
13.06.2018 17:00:00 22,3 14,9 27 14 46 25 NW 1019,7 13 0,0
13.06.2018 16:00:00 22,7 15,3 27 15 46 25 NW 1020,0 - 0,0
13.06.2018 15:00:00 23,3 16,3 21 11 37 20 NNW 1019,8 - 0,0
13.06.2018 14:00:00 23,3 16,3 20 11 30 16 NW 1019,9 10 0,0
13.06.2018 13:00:00 23,5 17,0 15 8 24 13 WNW 1019,9 - 0,0
13.06.2018 12:00:00 23,2 16,5 16 9 24 13 WNW 1019,8 - 0,2
13.06.2018 11:00:00 23,0 16,1 13 7 18 10 W 1019,4 - 0,0
13.06.2018 10:00:00 22,1 15,2 5 3 21 11 NNE 1019,1 - 0,0
13.06.2018 09:00:00 20,5 15,1 13 7 27 14 NNE 1018,8 - 0,0
13.06.2018 08:00:00 18,8 14,9 14 7 26 14 NNE 1018,4 10 0,0
13.06.2018 07:00:00 18,0 14,5 13 7 29 16 N 1018,0 - 0,0
13.06.2018 06:00:00 18,3 14,0 13 7 26 14 N 1017,7 - 0,0
13.06.2018 05:00:00 18,3 13,6 15 8 28 15 N 1017,7 10 0,0
13.06.2018 04:00:00 18,7 14,6 15 8 34 19 N 1017,2 - 0,0
13.06.2018 03:00:00 19,0 14,9 18 10 39 21 N 1016,9 - 0,0
13.06.2018 02:00:00 19,3 15,4 20 11 41 22 NNW 1016,9 10 0,0
13.06.2018 01:00:00 19,1 16,0 23 12 41 22 NW 1016,7 - 0,0
13.06.2018 00:00:00 19,0 16,4 27 14 38 21 NW 1016,5 - 0,0
12.06.2018 23:00:00 18,9 15,8 25 14 39 21 NW 1016,4 15 0,0
12.06.2018 22:00:00 18,8 15,7 26 14 44 24 NW 1015,7 - 0,0
12.06.2018 21:00:00 19,1 16,0 27 14 41 22 NW 1015,0 - 0,2
12.06.2018 20:00:00 20,1 15,5 22 12 37 20 NNW 1014,4 15 0,0
12.06.2018 19:00:00 20,5 15,9 18 10 32 18 NNW 1013,8 - 0,0
12.06.2018 18:00:00 21,7 16,0 20 11 30 16 NW 1013,7 - 0,0
12.06.2018 17:00:00 21,3 16,5 22 12 31 17 NW 1013,4 15 0,0
12.06.2018 16:00:00 21,6 16,8 21 11 31 17 NW 1013,0 - 0,0
12.06.2018 15:00:00 21,0 16,2 17 9 27 14 NW 1012,7 - 0,2
12.06.2018 14:00:00 20,4 15,6 13 7 26 14 NNW 1012,3 15 0,2
12.06.2018 13:00:00 20,4 15,4 14 7 27 15 NE 1011,6 - 0,6

tt = Température de l'air
td = dewpoint
ff = Vitesse du vent
fx = gusts
dd = Direction du vent
ppp = reduced air pressure
vv = visibility
rr = Quantités de précipitations

stations d'obs. à proximité